FW2617 Weather Reports


Display with metric or nautical units.
time (UTC)temp
F
wind
direction
speed
MPH
gust
MPH
rain 1hr
in
rain 24hr
in
rain mn
in
humidity
%
barometer
mb
20260902000025 97 75 2.0 6.0 0.00 0.00 0.00 41 1009.5
20260901235404 98 67 4.0 10.0 0.00 0.00 0.00 40 1009.5
20260901234504 99 70 3.0 11.0 0.00 0.00 0.00 39 1009.6
20260901233604 99 77 3.0 8.0 0.00 0.00 0.00 39 1009.6
20260901232704 100 80 2.0 6.0 0.00 0.00 0.00 39 1009.7
20260901231804 100 70 4.0 14.0 0.00 0.00 0.00 38 1009.6
20260901230904 101 69 3.0 8.0 0.00 0.00 0.00 38 1009.6
20260901230004 101 130 3.0 8.0 0.00 0.00 0.00 38 1009.7
20260901225404 101 125 2.0 6.0 0.00 0.00 0.00 38 1009.7
20260901224504 100 126 1.0 4.0 0.00 0.00 0.00 39 1009.7
20260901223604 98 84 1.0 4.0 0.00 0.00 0.00 41 1009.7
20260901222704 98 100 1.0 3.0 0.00 0.00 0.00 41 1009.8
20260901221804 98 139 1.0 5.0 0.00 0.00 0.00 41 1009.8
20260901220905 98 147 1.0 4.0 0.00 0.00 0.00 41 1009.9
20260901220004 98 120 1.0 6.0 0.00 0.00 0.00 40 1009.9
20260901215425 98 91 1.0 3.0 0.00 0.00 0.00 40 1010.0
20260901214525 98 114 2.0 4.0 0.00 0.00 0.00 40 1010.0
20260901213604 99 101 3.0 7.0 0.00 0.00 0.00 38 1010.1
20260901212725 101 93 3.0 10.0 0.00 0.00 0.00 37 1010.0
20260901211804 103 83 3.0 12.0 0.00 0.00 0.00 37 1010.1
20260901210904 101 131 2.0 6.0 0.00 0.00 0.00 38 1010.3
20260901210025 100 132 2.0 10.0 0.00 0.00 0.00 37 1010.4
20260901205404 102 107 2.0 7.0 0.00 0.00 0.00 36 1010.4
20260901204525 102 107 2.0 5.0 0.00 0.00 0.00 38 1010.4
20260901203604 103 105 2.0 6.0 0.00 0.00 0.00 37 1010.5
20260901202724 103 88 2.0 7.0 0.00 0.00 0.00 37 1010.6
20260901201804 102 130 2.0 7.0 0.00 0.00 0.00 37 1010.8
20260901200904 99 160 3.0 7.0 0.00 0.00 0.00 40 1010.9
20260901200004 100 150 4.0 9.0 0.00 0.00 0.00 37 1011.0
20260901195425 102 144 2.0 9.0 0.00 0.00 0.00 37 1011.1
20260901194504 101 151 2.0 4.0 0.00 0.00 0.00 39 1011.1
20260901193604 101 119 2.0 9.0 0.00 0.00 0.00 41 1011.3
20260901192704 98 160 2.0 9.0 0.00 0.00 0.00 42 1011.4
20260901191825 97 177 3.0 9.0 0.00 0.00 0.00 43 1011.5
20260901190904 98 171 3.0 8.0 0.00 0.00 0.00 43 1011.6
20260901190025 98 156 3.0 7.0 0.00 0.00 0.00 42 1011.7
20260901185404 100 127 2.0 9.0 0.00 0.00 0.00 41 1011.8
20260901184504 100 65 3.0 9.0 0.00 0.00 0.00 43 1011.9
20260901183604 98 81 2.0 5.0 0.00 0.00 0.00 43 1012.1
20260901182704 98 120 1.0 5.0 0.00 0.00 0.00 46 1012.3
20260901181803 97 138 2.0 4.0 0.00 0.00 0.00 43 1012.6
20260901180904 98 169 4.0 11.0 0.00 0.00 0.00 43 1012.8
20260901180004 99 176 3.0 11.0 0.00 0.00 0.00 41 1012.9
20260901175404 100 154 2.0 6.0 0.00 0.00 0.00 42 1012.9
20260901174525 98 128 3.0 9.0 0.00 0.00 0.00 44 1013.0
20260901173604 98 178 3.0 9.0 0.00 0.00 0.00 44 1013.1
20260901172704 98 102 2.0 5.0 0.00 0.00 0.00 46 1013.3
20260901171825 97 152 3.0 10.0 0.00 0.00 0.00 47 1013.3
20260901170904 96 74 1.0 4.0 0.00 0.00 0.00 47 1013.4
20260901170004 96 129 3.0 6.0 0.00 0.00 0.00 47 1013.5
20260901165425 96 136 3.0 7.0 0.00 0.00 0.00 47 1013.6
20260901164504 96 143 2.0 5.0 0.00 0.00 0.00 49 1013.7
20260901163625 94 190 3.0 8.0 0.00 0.00 0.00 51 1013.8
20260901162704 93 176 4.0 9.0 0.00 0.00 0.00 51 1013.9
20260901161804 92 199 4.0 9.0 0.00 0.00 0.00 53 1013.9
20260901160903 92 198 2.0 7.0 0.00 0.00 0.00 55 1013.9
20260901160004 91 160 3.0 10.0 0.00 0.00 0.00 56 1013.9
20260901155403 90 166 3.0 10.0 0.00 0.00 0.00 57 1013.9
20260901154504 89 195 3.0 6.0 0.00 0.00 0.00 58 1013.9
20260901153604 89 198 4.0 9.0 0.00 0.00 0.00 59 1013.9
20260901152704 88 177 3.0 9.0 0.00 0.00 0.00 60 1013.8
20260901151825 88 170 3.0 8.0 0.00 0.00 0.00 61 1013.8
20260901150904 87 173 3.0 8.0 0.00 0.00 0.00 63 1013.9
20260901150004 86 174 3.0 7.0 0.00 0.00 0.00 66 1013.9
20260901145425 85 194 2.0 6.0 0.00 0.00 0.00 68 1013.9
20260901144504 85 201 3.0 6.0 0.00 0.00 0.00 69 1014.0
20260901143625 84 186 3.0 6.0 0.00 0.00 0.00 69 1014.0
20260901142704 83 187 2.0 4.0 0.00 0.00 0.00 72 1014.0
20260901141824 83 183 2.0 6.0 0.00 0.00 0.00 72 1014.1
20260901140904 83 168 2.0 6.0 0.00 0.00 0.00 74 1014.2
20260901140004 82 174 3.0 6.0 0.00 0.00 0.00 75 1014.1
20260901135403 81 173 2.0 6.0 0.00 0.00 0.00 75 1014.1
20260901134504 80 162 1.0 4.0 0.00 0.00 0.00 77 1014.2
20260901133604 80 166 2.0 5.0 0.00 0.00 0.00 77 1014.2
20260901132704 79 166 2.0 6.0 0.00 0.00 0.00 77 1014.1
20260901131825 79 166 1.0 6.0 0.00 0.00 0.00 77 1014.0
20260901130904 78 161 1.0 4.0 0.00 0.00 0.00 77 1014.0
20260901130004 78 169 0.0 3.0 0.00 0.00 0.00 77 1014.0
20260901125404 78 164 0.0 4.0 0.00 0.00 0.00 77 1013.9
20260901124525 77 0 0.0 0.0 0.00 0.00 0.00 78 1013.8
20260901123604 77 148 0.0 2.0 0.00 0.00 0.00 78 1013.6
20260901122704 77 148 0.0 2.0 0.00 0.00 0.00 78 1013.6
20260901121804 77 0 0.0 0.0 0.00 0.00 0.00 77 1013.3
20260901120904 77 0 0.0 0.0 0.00 0.00 0.00 77 1013.2
20260901120004 77 159 0.0 4.0 0.00 0.00 0.00 77 1013.1
20260901115403 77 156 1.0 4.0 0.00 0.00 0.00 76 1013.1
20260901114504 78 164 2.0 5.0 0.00 0.00 0.00 76 1013.0
20260901113604 78 164 1.0 4.0 0.00 0.00 0.00 76 1013.1
20260901112704 78 0 0.0 0.0 0.00 0.00 0.00 76 1013.2
20260901111804 78 0 0.0 0.0 0.00 0.00 0.00 76 1013.2
20260901110925 78 0 0.0 0.0 0.00 0.00 0.00 75 1013.0
20260901110024 78 173 0.0 2.0 0.00 0.00 0.00 75 1012.9
20260901105404 78 173 0.0 2.0 0.00 0.00 0.00 75 1012.8
20260901104525 78 176 1.0 2.0 0.00 0.00 0.00 74 1012.8
20260901103625 78 165 0.0 2.0 0.00 0.00 0.00 74 1012.8
20260901102725 79 177 0.0 3.0 0.00 0.00 0.00 73 1012.9
20260901101804 79 0 0.0 0.0 0.00 0.00 0.00 72 1012.8
20260901100903 79 0 0.0 0.0 0.00 0.00 0.00 72 1012.8
20260901100004 79 0 0.0 0.0 0.00 0.00 0.00 71 1012.8
20260901095404 79 0 0.0 0.0 0.00 0.00 0.00 71 1012.8
20260901094524 79 0 0.0 0.0 0.00 0.00 0.00 71 1012.9
20260901093603 80 180 0.0 3.0 0.00 0.00 0.00 70 1013.0
20260901092704 80 191 1.0 3.0 0.00 0.00 0.00 70 1013.0
20260901091804 80 195 1.0 3.0 0.00 0.00 0.00 69 1013.1
20260901090904 80 182 1.0 4.0 0.00 0.00 0.00 68 1013.1
20260901090004 80 0 0.0 0.0 0.00 0.00 0.00 67 1013.0
20260901085404 80 0 0.0 0.0 0.00 0.00 0.00 67 1012.9
20260901084525 80 203 0.0 2.0 0.00 0.00 0.00 66 1012.9
20260901083604 80 190 1.0 2.0 0.00 0.00 0.00 66 1012.9
20260901082704 80 169 1.0 4.0 0.00 0.00 0.00 66 1013.0
20260901081804 80 167 1.0 5.0 0.00 0.00 0.00 65 1013.0
20260901080925 80 166 1.0 5.0 0.00 0.00 0.00 65 1012.9
20260901080004 80 173 0.0 3.0 0.00 0.00 0.00 63 1013.0
20260901075403 80 165 0.0 4.0 0.00 0.00 0.00 62 1013.0
20260901074503 81 0 0.0 0.0 0.00 0.00 0.00 61 1013.1
20260901073604 81 150 1.0 3.0 0.00 0.00 0.00 61 1012.9
20260901072704 81 161 1.0 4.0 0.00 0.00 0.00 61 1012.8
20260901071804 81 154 2.0 5.0 0.00 0.00 0.00 60 1012.8
20260901070904 82 181 2.0 6.0 0.00 0.00 0.00 59 1012.7
20260901070004 82 169 2.0 6.0 0.00 0.00 0.00 58 1012.7
20260901065404 82 166 3.0 6.0 0.00 0.00 0.00 58 1012.6
20260901064503 82 163 2.0 6.0 0.00 0.00 0.00 57 1012.6
20260901063603 82 149 1.0 3.0 0.00 0.00 0.00 56 1012.4
20260901062703 82 152 1.0 4.0 0.00 0.00 0.00 55 1012.3
20260901061804 82 152 2.0 5.0 0.00 0.00 0.00 54 1012.3
20260901060925 82 151 2.0 6.0 0.00 0.00 0.00 54 1012.2
20260901060024 83 149 1.0 4.0 0.00 0.00 0.00 53 1012.1
20260901055404 83 149 1.0 5.0 0.00 0.00 0.00 52 1011.9
20260901054504 83 151 1.0 4.0 0.00 0.00 0.00 52 1011.8
20260901053604 83 158 0.0 1.0 0.00 0.00 0.00 52 1011.8
20260901052704 83 145 1.0 4.0 0.00 0.00 0.00 52 1011.7
20260901051804 84 0 0.0 0.0 0.00 0.00 0.00 52 1011.5
20260901050903 84 0 0.0 0.0 0.00 0.00 0.00 51 1011.3
20260901050004 84 0 0.0 0.0 0.00 0.00 0.00 51 1011.4
20260901045404 84 0 0.0 0.0 0.00 0.00 0.00 51 1011.4
20260901044505 84 0 0.0 0.0 0.00 0.00 0.00 50 1011.3
20260901043604 84 0 0.0 0.0 0.00 0.00 0.00 51 1011.4
20260901042703 85 0 0.0 0.0 0.00 0.00 0.00 50 1011.4
20260901041804 85 0 0.0 0.0 0.00 0.00 0.00 49 1011.3
20260901040904 86 0 0.0 0.0 0.00 0.00 0.00 49 1011.4
20260901040004 86 0 0.0 0.0 0.00 0.00 0.00 49 1011.4
20260901035404 86 0 0.0 0.0 0.00 0.00 0.00 49 1011.4
20260901034504 87 0 0.0 0.0 0.00 0.00 0.00 49 1011.5
20260901033603 87 0 0.0 0.0 0.00 0.00 0.00 46 1011.3
20260901032704 88 157 1.0 3.0 0.00 0.00 0.00 46 1011.3
20260901031803 88 153 0.0 2.0 0.00 0.00 0.00 46 1011.3
20260901030925 88 155 1.0 3.0 0.00 0.00 0.00 45 1011.3
20260901030003 88 157 0.0 2.0 0.00 0.00 0.00 45 1011.2
20260901025404 88 0 0.0 0.0 0.00 0.00 0.00 45 1011.1
20260901024504 89 0 0.0 0.0 0.00 0.00 0.00 44 1011.0
20260901023624 89 153 0.0 2.0 0.00 0.00 0.00 44 1010.9
20260901022704 89 150 1.0 2.0 0.00 0.00 0.00 43 1010.8
20260901021804 90 150 0.0 2.0 0.00 0.00 0.00 43 1010.7
20260901020904 90 151 1.0 2.0 0.00 0.00 0.00 42 1010.6
20260901020025 90 150 1.0 2.0 0.00 0.00 0.00 42 1010.5
20260901015404 91 0 0.0 0.0 0.00 0.00 0.00 41 1010.4
20260901014524 91 142 0.0 2.0 0.00 0.00 0.00 40 1010.3
20260901013604 92 148 1.0 2.0 0.00 0.00 0.00 40 1010.2
20260901012704 92 149 1.0 4.0 0.00 0.00 0.00 39 1010.2
20260901011803 93 149 2.0 4.0 0.00 0.00 0.00 38 1010.2
20260901010925 94 142 1.0 4.0 0.00 0.00 0.00 38 1010.1
20260901010003 94 143 1.0 3.0 0.00 0.00 0.00 37 1010.1
20260901005404 94 142 1.0 4.0 0.00 0.00 0.00 37 1010.0
20260901004503 95 150 2.0 5.0 0.00 0.00 0.00 36 1010.0
20260901003604 95 144 2.0 6.0 0.00 0.00 0.00 36 1010.0
20260901002703 96 143 2.0 8.0 0.00 0.00 0.00 35 1010.0
20260901001803 96 147 2.0 6.0 0.00 0.00 0.00 35 1010.0
20260901000904 97 152 2.0 6.0 0.00 0.00 0.00 35 1010.0